Location: Unspecified
(0.0000°N, 0.0000°E)
Time: 02:22:27
(UTC+02:00)

Transit 2A - Visible Passes

Search period start: 25 April 2015 00:00
Search period end: 05 May 2015 00:00
Orbit: 592 x 969 km, 66.7° (Epoch: 23 April)

Date Brightness Start Highest point End Pass type
(mag) Time Alt. Az. Time Alt. Az. Time Alt. Az.
25 Apr 9.2 06:03:33 10° ESE 06:03:55 10° ESE 06:04:50 10° ESE visible
25 Apr 8.6 20:20:12 10° WNW 20:23:01 15° WSW 20:25:26 10° SW visible
26 Apr 6.3 07:07:43 10° SSW 07:13:13 90° ESE 07:19:18 10° NNE visible
27 Apr 6.9 06:34:08 10° S 06:39:29 56° ESE 06:45:24 10° NNE visible
28 Apr 7.7 06:01:48 15° SSE 06:05:45 34° ESE 06:11:09 10° NE visible
29 Apr 8.3 05:30:07 18° SE 05:31:59 21° ESE 05:36:28 10° ENE visible
29 Apr 7.1 07:10:43 13° SW 07:15:07 30° WNW 07:20:18 10° N visible
30 Apr 8.8 04:58:21 13° ESE 04:58:21 13° ESE 05:00:48 10° E visible
30 Apr 6.5 06:38:57 32° WSW 06:41:16 49° WNW 06:47:07 10° N visible
01 May 6.1 06:07:05 75° WSW 06:07:28 79° WNW 06:13:35 10° NNE visible
02 May 7.0 05:35:08 49° NE 05:35:08 49° NE 05:39:46 10° NNE visible
03 May 8.3 05:03:06 23° NE 05:03:06 23° NE 05:05:38 10° NE visible
03 May 7.9 06:43:39 16° WNW 06:43:39 16° WNW 06:46:51 10° NNW visible
04 May 9.2 04:30:57 11° NE 04:30:57 11° NE 04:31:06 10° NE visible
04 May 7.8 06:11:31 21° NW 06:11:31 21° NW 06:14:20 10° NNW visible
